Kingstree, SC

10:41 AM EST on December 13, 2019 (GMT -0500)
Williamsburg County

Weather History for KCKI - November, 2019

Change the Weather History Date:

Tuesday, November 12, 2019

  Actual Average Record
Temperature  
Mean Temperature 50 °F -  
Max Temperature 68 °F 68 °F 78 °F (2012)
Min Temperature 32 °F 39 °F 28 °F (2011)
Degree Days  
Heating Degree Days 14    
Moisture  
Dew Point 44 °F    
Average Humidity 89    
Maximum Humidity 100    
Minimum Humidity 60    
Precipitation  
Precipitation 0.15 in - - ()
Sea Level Pressure  
Sea Level Pressure 29.99 in    
Wind  
Wind Speed 3 mph ()    
Max Wind Speed 12 mph    
Max Gust Speed 22 mph    
Visibility 9.4 miles    
Events Rain    
Averages and records for this station are not official NWS values.
T = Trace of Precipitation, MM = Missing Value Source: Averaged Metar Reports

Daily Weather History Graph

Daily Weather History Graph

Search for Another Location

Airport or City:

Astronomy

Nov. 12, 2019 Rise Set
Actual Time 6:48 AM EST 5:18 PM EST
Civil Twilight 6:22 AM EST 5:44 PM EST
Nautical Twilight 5:52 AM EST 6:14 PM EST
Astronomical Twilight 5:22 AM EST 6:44 PM EST
Moon 5:43 PM EST (11/12) 6:40 AM EST (11/12)
Length of Visible Light 11h 22m
Length of Day
10h 30m
Full, 100% of the Moon is Illuminated
Nov 12
Full
Nov 19
Last Quarter
Nov 26
New
Dec 4
First Quarter
Dec 12
Full

Hourly Weather History & Observations

Time (EST) Temp. Windchill Dew Point Humidity Pressure Visibility Wind Dir Wind Speed Gust Speed Precip Events Conditions
12:15 AM 46.4 °F - 46.4 °F 100% 30.03 in 10.0 mi Calm Calm - N/A   Clear
12:35 AM 46.4 °F - 46.4 °F 100% 30.03 in 10.0 mi Calm Calm - N/A   Clear
1:35 AM 46.4 °F - 44.6 °F 93% 30.00 in 10.0 mi Calm Calm - N/A   Clear
1:55 AM 46.4 °F - 46.4 °F 100% 29.99 in 10.0 mi Calm Calm - N/A   Clear
2:15 AM 48.2 °F - 46.4 °F 93% 29.98 in 10.0 mi Calm Calm - N/A   Clear
2:35 AM 48.2 °F - 46.4 °F 93% 29.97 in 10.0 mi Calm Calm - N/A   Clear
2:55 AM 46.4 °F - 46.4 °F 100% 29.96 in 10.0 mi Calm Calm - N/A   Clear
3:15 AM 46.4 °F - 46.4 °F 100% 29.95 in 10.0 mi Calm Calm - N/A   Clear
3:35 AM 46.4 °F - 46.4 °F 100% 29.94 in 10.0 mi Calm Calm - N/A   Clear
3:55 AM 46.4 °F - 44.6 °F 93% 29.93 in 10.0 mi Calm Calm - N/A   Clear
4:15 AM 48.2 °F - 46.4 °F 93% 29.91 in 10.0 mi Calm Calm - N/A   Clear
4:35 AM 48.2 °F - 46.4 °F 93% 29.92 in 10.0 mi Calm Calm - N/A   Clear
4:55 AM 48.2 °F - 46.4 °F 93% 29.91 in 10.0 mi Calm Calm - N/A   Clear
5:35 AM 48.2 °F - 46.4 °F 93% 29.90 in 10.0 mi Calm Calm - N/A   Clear
6:15 AM 48.2 °F - 46.4 °F 93% 29.89 in 10.0 mi Calm Calm - N/A   Clear
6:35 AM 48.2 °F - 46.4 °F 93% 29.90 in 10.0 mi Calm Calm - N/A   Clear
6:55 AM 50.0 °F - 46.4 °F 87% 29.90 in 10.0 mi Calm Calm - N/A   Clear
7:15 AM 50.0 °F - 48.2 °F 94% 29.90 in 10.0 mi Calm Calm - N/A   Clear
7:35 AM 50.0 °F - 50.0 °F 100% 29.91 in 10.0 mi Calm Calm - N/A   Clear
7:55 AM 51.8 °F - 50.0 °F 94% 29.91 in 10.0 mi Calm Calm - N/A   Clear
8:15 AM 53.6 °F - 51.8 °F 94% 29.91 in 10.0 mi Calm Calm - N/A   Clear
8:35 AM 53.6 °F - 53.6 °F 100% 29.91 in 10.0 mi Calm Calm - N/A   Clear
8:55 AM 55.4 °F - 55.4 °F 100% 29.91 in 10.0 mi Calm Calm - N/A   Clear
9:15 AM 59.0 °F - 57.2 °F 94% 29.91 in 10.0 mi Calm Calm - N/A   Clear
9:35 AM 60.8 °F - 59.0 °F 94% 29.91 in 10.0 mi SSW 3.5 mph - N/A   Clear
9:55 AM 64.4 °F - 59.0 °F 83% 29.91 in 10.0 mi SW 8.1 mph - N/A   Clear
10:15 AM 66.2 °F - 59.0 °F 78% 29.90 in 10.0 mi SSW 8.1 mph - N/A   Scattered Clouds
10:35 AM 68.0 °F - 59.0 °F 73% 29.90 in 10.0 mi SSW 9.2 mph 17.3 mph N/A   Overcast
11:35 AM 64.4 °F - 59.0 °F 83% 29.90 in 10.0 mi West 9.2 mph - N/A   Overcast
11:55 AM 64.4 °F - 60.8 °F 88% 29.89 in 10.0 mi West 8.1 mph - N/A Rain Light Rain
12:15 PM 62.6 °F - 60.8 °F 94% 29.89 in 10.0 mi West 6.9 mph - N/A   Drizzle
12:35 PM 60.8 °F - 59.0 °F 94% 29.88 in 7.0 mi WNW 5.8 mph - 0.01 in Rain Rain
1:15 PM 55.4 °F - 55.4 °F 100% 29.88 in 5.0 mi NW 10.4 mph - 0.01 in Rain Rain
1:35 PM 55.4 °F - 53.6 °F 94% 29.89 in 5.0 mi NW 8.1 mph - 0.04 in Rain Rain
1:55 PM 55.4 °F - 53.6 °F 94% 29.89 in 3.0 mi NNW 9.2 mph 16.1 mph 0.06 in Rain Light Rain
2:15 PM 51.8 °F - 51.8 °F 100% 29.90 in 2.5 mi North 9.2 mph 21.9 mph 0.02 in Rain Rain
2:35 PM 50.0 °F - 50.0 °F 100% 29.92 in 5.0 mi NW 11.5 mph - 0.04 in Rain Rain
2:55 PM 46.4 °F 42.4 °F 46.4 °F 100% 29.94 in 7.0 mi NNW 8.1 mph 18.4 mph 0.04 in Rain Rain
3:15 PM 46.4 °F 41.5 °F 44.6 °F 93% 29.95 in 7.0 mi NW 10.4 mph 16.1 mph 0.01 in Rain Rain
3:35 PM 44.6 °F 40.2 °F 44.6 °F 100% 29.96 in 10.0 mi NW 8.1 mph 17.3 mph 0.02 in   Drizzle
3:55 PM 44.6 °F 38.8 °F 42.8 °F 93% 29.98 in 10.0 mi WNW 11.5 mph 18.4 mph 0.03 in Rain Rain
4:15 PM 42.8 °F 36.6 °F 42.8 °F 100% 29.99 in 10.0 mi NW 11.5 mph 17.3 mph N/A Rain Rain
4:35 PM 42.8 °F 38.0 °F 41.0 °F 93% 29.99 in 10.0 mi NNW 8.1 mph - 0.01 in   Drizzle
4:55 PM 42.8 °F 38.0 °F 41.0 °F 93% 30.02 in 10.0 mi NW 8.1 mph - 0.01 in   Drizzle
5:15 PM 42.8 °F 36.6 °F 41.0 °F 93% 30.03 in 10.0 mi North 11.5 mph 17.3 mph N/A   Light Drizzle
5:55 PM 41.0 °F 38.0 °F 39.2 °F 93% 30.06 in 10.0 mi North 4.6 mph - N/A Rain Rain
6:15 PM 41.0 °F 34.7 °F 37.4 °F 87% 30.07 in 10.0 mi NNW 10.4 mph 18.4 mph N/A   Overcast
6:55 PM 39.2 °F 33.6 °F 33.8 °F 81% 30.10 in 10.0 mi NNW 8.1 mph 17.3 mph N/A   Overcast
7:15 PM 39.2 °F 33.6 °F 33.8 °F 81% 30.10 in 10.0 mi NNW 8.1 mph 17.3 mph N/A   Overcast
7:35 PM 39.2 °F 33.6 °F 33.8 °F 81% 30.11 in 10.0 mi NNW 8.1 mph - N/A   Overcast
7:55 PM 39.2 °F 33.0 °F 32.0 °F 75% 30.12 in 10.0 mi North 9.2 mph - N/A   Overcast
8:15 PM 39.2 °F 33.6 °F 32.0 °F 75% 30.14 in 10.0 mi NNW 8.1 mph - N/A   Overcast
8:35 PM 39.2 °F 35.9 °F 32.0 °F 75% 30.14 in 10.0 mi NNW 4.6 mph - N/A   Overcast
8:55 PM 37.4 °F 32.8 °F 32.0 °F 81% 30.15 in 10.0 mi NNW 5.8 mph - N/A   Mostly Cloudy
9:15 PM 37.4 °F 32.1 °F 32.0 °F 81% 30.16 in 10.0 mi NNW 6.9 mph - N/A   Scattered Clouds
9:35 PM 37.4 °F 31.4 °F 32.0 °F 81% 30.17 in 10.0 mi NW 8.1 mph - N/A   Clear
9:55 PM 37.4 °F 31.4 °F 30.2 °F 75% 30.18 in 10.0 mi NNW 8.1 mph - N/A   Clear
10:35 PM 35.6 °F 29.2 °F 26.6 °F 70% 30.21 in 10.0 mi NNW 8.1 mph 18.4 mph N/A   Clear
10:55 PM 33.8 °F 25.3 °F 26.6 °F 75% 30.22 in 10.0 mi NNW 11.5 mph 18.4 mph N/A   Clear
11:15 PM 33.8 °F 27.0 °F 23.0 °F 65% 30.23 in 10.0 mi NW 8.1 mph 16.1 mph N/A   Clear
11:35 PM 33.8 °F 27.7 °F 21.2 °F 60% 30.23 in 10.0 mi NW 6.9 mph 16.1 mph N/A   Clear
11:55 PM 32.0 °F 24.8 °F 21.2 °F 64% 30.23 in 10.0 mi NNW 8.1 mph 18.4 mph N/A   Clear